OBJECT C, 60747

Orbit data source: Space-Track

You're viewing an Uncataloged Satellite

Recently launched and/or uncataloged satellites may have evolving metadata. Metadata may include but not limited to: Owner, Maufacturer, Bus, Motor, and Mission.

OBJECT C, 60747 is a satellite owned by Yunyao yuhang (CN) in SSO that was launched on Thu, 29 Aug 2024 UTC via a GUSHENXING 1 launch vehicle from the Yellow Sea Launch Area, China (YSLA). Unknown objects in Earth's orbit typically refer to objects detected orbiting the Earth but have not yet been identified or cataloged. These objects could be anything from previously untracked satellites, spent rocket stages, debris from satellite collisions, or even natural meteoroids temporarily captured by Earth's gravity.

Loading next visibility...
Identifier
60747, 2024-153C
Orbit
SSO
Last TLE update
9 hours ago
Origin
Flag of CNYYAO (CN / PRC)
Manufacturer
Changguang WJ
Mission
Operational Commercial Weather
Bus & Motor
YY-1, Unknown motor
Mass
~50 kg wet, ~50 kg dry
Launch date (UTC)
2024-08-29 (10 months ago)
Launch vehicle
GUSHENXING 1
Launch site
Yellow Sea Launch Area, China (YSLA)
Object type
Unknown
Shape & HBR
Box + 1 Pan, 5 m
Radar Cross Section
5.339 m², Medium (>0.1 m² and < 1m²)

Expand to show TLE details & history

TLE from 9 hours ago
0 OBJECT C
1 60747U 24153C   25183.89043754  .00010955  00000-0  45358-3 0  9996
2 60747  97.6397 309.4870 0011813 308.0853  51.9318 15.24050089 46662
Epoch: 2025-07-02T21:22Z
TLE epoch observation values (Epoch: 2025-07-02T21:22:13.803Z)
Latitude
0.00003°
Longitude
67.76444°
Altitude
491.728 km
Speed
7.622 km/s
True Right ascension
20h 37m 56s
True Declination
0° 00' 00"
Sunlit
Object was in full shadow at epoch
Visualization orbit readout
Latitude
-60.39399°
Longitude
-125.43391°
Altitude
513.574 km
Speed
7.607 km/s
Apparent Right ascension
06h 45m 21s
Apparent Declination
-51° 02' 51"
Sunlit
Object is in daylight
Visualization observer readout
Local Sidereal Time
18:03:57
Azimuth
209.506° SW
Elevation
-76.74°
Doppler factor
1
Orbital elements
Apogee altitude
498.724 km
Perigee altitude
482.496 km
Semi-major axis
6,868.747 km
Eccentricity
0.00118
Inclination
97.6397°
RAAN
309.487°
Arg. of periapsis
308.0853°
True anomaly
Unknown
Mean anomaly
51.9318°
Eccentric anomaly
Unknown
Mean motion
3.81265 °/min
Orbital period
94.42 mins
BSTAR
0.00045358
Loading maneuver chart data...
Loading SW <> Apogee altitude chart data...
Loading historical data...
Loading historical data...
Loading historical data...
Loading historical data...
Loading historical data...
Loading historical data...
Loading historical data...

OBJECT C Visibility forecast

Observer location: undefined°, undefined°

Span
Click to sort rows by Start time (UTC) header in descending order
Start Az.
Max El. time (UTC)
Max El. Az.
Max El.
End time (UTC)
End Az.
6 mins2025-07-03 08:31:17.939Z173.254° S2025-07-03 08:34:17.939Z221.777° SW43.184°2025-07-03 08:37:17.939Z342.245° N
5 mins2025-07-03 21:35:17.939Z347.095° N2025-07-03 21:37:17.939Z258.566° W36.677°2025-07-03 21:40:17.939Z209.649° SW
|